Terminal Aerodrome Forecast
Issued by NWS Bismarck, ND

Home | Current Version | Previous Version | Graphics & Text | Print | Product List | Glossary On
Versions: 1 2 3 4 5 6 7 8 9 10 11 12 13 14 15 16 17 18 19 20 21 22 23 24
000
FTUS43 KBIS 241300 AAA
TAFBIS
TAF AMD
KBIS 241348Z 2414/2512 19006KT P6SM OVC008
     FM241500 25010KT P6SM VCSH OVC015
     FM241800 23015KT P6SM VCSH BKN025 OVC035
     FM242100 24015G25KT P6SM SCT025 OVC040
     FM250200 26012KT P6SM OVC035=

USA.gov is the U.S. government's official web portal to all federal, state and local government web resources and services.